Voltar ao catálogo

KOREASAT 1

AtivoComunicaçõesGEO
NORAD 23639·PAYLOAD·🇰🇷 South Korea

Lançado Aug 5, 1995 de Cape Canaveral Space Force Station

Loading…

TLE

AtualizadoSource: Space-Track

Época: Sep 14, 2026, 16:08 UTC

1 23639U 95041A   26257.67225478 -.00000360  00000-0  00000-0 0  9995
2 23639  14.7268 357.9252 0005678 240.1849 128.3868  0.99671133113426

Acompanhe KOREASAT 1 em tempo real com AllMySat

Download on the App Store